FW3919 Weather Reports


time (UTC)temp
F
wind
direction
speed
knots
gust
knots
rain 1hr
in
rain 24hr
in
rain mn
in
humidity
%
barometer
mb
20260510123037 51 195 2.6 7.0 0.00 0.01 0.01 92 1009.7
20260510121536 51 219 3.5 10.4 0.00 0.01 0.01 92 1009.6
20260510120034 52 225 2.6 8.7 0.00 0.01 0.01 92 1009.5
20260510114537 51 174 3.5 9.6 0.00 0.01 0.01 92 1009.4
20260510113036 51 196 3.5 8.7 0.00 0.01 0.01 92 1009.4
20260510111533 51 226 3.5 8.7 0.00 0.01 0.01 92 1009.3
20260510110038 51 180 2.6 6.1 0.00 0.01 0.01 93 1009.2
20260510104527 51 194 2.6 8.7 0.00 0.01 0.01 92 1009.0
20260510103026 50 167 2.6 7.0 0.00 0.01 0.01 94 1008.7
20260510101525 49 218 0.9 4.3 0.00 0.01 0.01 94 1008.7
20260510100024 49 152 2.6 7.0 0.00 0.01 0.01 94 1007.9
20260510094540 49 192 3.5 10.4 0.00 0.01 0.01 94 1008.2
20260510093021 48 217 2.6 7.8 0.00 0.01 0.01 95 1008.2
20260510091523 48 212 1.7 6.1 0.00 0.01 0.01 95 1008.0
20260510090020 48 179 1.7 4.3 0.00 0.01 0.01 94 1007.9
20260510084522 49 149 0.0 5.2 0.01 0.01 0.01 94 1007.7
20260510083020 49 163 1.7 4.3 0.01 0.01 0.01 94 1007.6
20260510081519 50 207 2.6 6.1 0.01 0.01 0.01 94 1008.0
20260510080019 50 171 2.6 7.0 0.01 0.01 0.01 93 1008.3
20260510074517 50 225 2.6 9.6 0.01 0.01 0.01 93 1008.2
20260510073018 51 192 4.3 10.4 0.00 0.00 0.00 92 1008.0
20260510071514 51 135 1.7 9.6 0.00 0.00 0.00 91 1007.8
20260510070022 51 167 5.2 16.5 0.00 0.00 0.00 90 1008.0
20260510064514 52 185 5.2 10.4 0.00 0.00 0.00 89 1008.3
20260510063010 52 200 4.3 13.9 0.00 0.00 0.00 88 1008.0
20260510061506 52 196 4.3 14.8 0.00 0.00 0.00 88 1007.9
20260510060003 52 212 3.5 16.5 0.00 0.00 0.00 87 1008.1
20260510054559 52 182 6.1 12.2 0.00 0.00 0.00 87 1008.1
20260510053104 51 193 6.1 14.8 0.00 0.00 0.00 87 1008.2
20260510051556 51 144 3.5 8.7 0.00 0.00 0.00 88 1008.4
20260510050051 50 204 2.6 6.1 0.00 0.00 0.00 88 1008.3
20260510044553 50 207 1.7 7.0 0.00 0.00 0.00 88 1008.4
20260510043100 49 140 2.6 10.4 0.00 0.00 0.00 89 1008.0
20260510041545 48 148 2.6 5.2 0.00 0.00 0.00 90 1007.8
20260510040044 48 166 0.9 4.3 0.00 0.00 0.00 89 1007.7
20260510034540 49 161 0.9 4.3 0.00 0.00 0.00 89 1007.9
20260510033038 49 150 0.9 5.2 0.00 0.00 0.00 88 1008.1
20260510031545 50 169 2.6 7.8 0.00 0.00 0.00 88 1008.3
20260510030038 50 149 3.5 6.1 0.00 0.00 0.00 88 1008.3
20260510024540 50 213 1.7 6.1 0.00 0.00 0.00 88 1008.4
20260510023035 49 161 2.6 7.8 0.00 0.00 0.00 88 1008.5
20260510021542 49 120 2.6 7.8 0.00 0.00 0.00 87 1008.3
20260510020033 50 128 1.7 6.1 0.00 0.00 0.00 86 1008.7
20260510014533 50 139 3.5 7.0 0.00 0.00 0.00 86 1008.5
20260510013029 49 129 1.7 8.7 0.00 0.00 0.00 86 1008.6
20260510011539 49 142 0.9 6.1 0.00 0.00 0.00 86 1008.7
20260510010027 50 159 2.6 9.6 0.00 0.00 0.00 85 1008.8
20260510004532 49 112 2.6 7.0 0.00 0.00 0.00 85 1008.9
20260510003028 50 161 1.7 5.2 0.00 0.00 0.00 85 1009.0
20260510001527 50 188 0.0 5.2 0.00 0.00 0.00 84 1009.1
20260510000034 50 113 2.6 6.1 0.00 0.00 0.00 84 1009.0
20260509234525 50 167 1.7 7.0 0.00 0.00 0.00 84 1009.0
20260509233025 50 175 2.6 7.8 0.00 0.00 0.00 83 1008.9
20260509231523 50 144 2.6 6.1 0.00 0.00 0.00 83 1009.0
20260509230023 50 136 1.7 7.0 0.00 0.00 0.00 82 1008.8
20260509224526 51 168 2.6 7.8 0.00 0.00 0.00 81 1008.9
20260509223025 51 156 3.5 7.0 0.00 0.00 0.00 82 1009.1
20260509221524 51 169 2.6 8.7 0.00 0.00 0.00 82 1009.2
20260509220025 50 138 3.5 8.7 0.00 0.00 0.00 82 1009.2
20260509214523 50 142 3.5 7.8 0.00 0.00 0.00 81 1009.3
20260509213028 51 137 4.3 11.3 0.00 0.00 0.00 80 1009.4
20260509211521 52 151 5.2 13.9 0.00 0.00 0.00 78 1009.4
20260509210020 52 148 3.5 8.7 0.00 0.00 0.00 78 1009.7
20260509204519 52 196 1.7 12.2 0.00 0.00 0.00 77 1009.8
20260509203018 53 165 4.3 8.7 0.00 0.00 0.00 74 1009.9
20260509201517 54 105 6.1 16.5 0.00 0.00 0.00 72 1009.6
20260509200018 55 136 3.5 11.3 0.00 0.00 0.00 71 1009.8
20260509194515 54 221 3.5 11.3 0.00 0.00 0.00 73 1009.8
20260509193024 53 186 5.2 12.2 0.00 0.00 0.00 71 1009.9
20260509191513 54 188 5.2 9.6 0.00 0.00 0.00 69 1010.0
20260509190011 54 137 3.5 10.4 0.00 0.00 0.00 69 1010.1
20260509184528 55 180 7.0 16.5 0.00 0.00 0.00 65 1010.3
20260509183012 56 171 3.5 13.0 0.00 0.00 0.00 62 1010.5
20260509181511 57 147 5.2 15.6 0.00 0.00 0.00 58 1010.4
20260509180014 57 186 5.2 11.3 0.00 0.00 0.00 54 1010.5
20260509174520 58 224 4.3 8.7 0.00 0.00 0.00 52 1010.5
20260509173009 58 205 3.5 8.7 0.00 0.00 0.00 48 1010.4
20260509171509 58 242 2.6 8.7 0.00 0.00 0.00 48 1010.6
20260509170010 58 249 2.6 6.1 0.00 0.00 0.00 48 1010.6
20260509164503 58 242 3.5 7.8 0.00 0.00 0.00 44 1010.6
20260509163001 58 186 2.6 8.7 0.00 0.00 0.00 44 1010.9
20260509161500 59 123 3.5 7.8 0.00 0.00 0.00 44 1011.1
20260509160058 58 136 1.7 7.0 0.00 0.00 0.00 42 1011.2
20260509154600 58 207 3.5 7.0 0.00 0.00 0.00 44 1011.6
20260509153117 58 238 3.5 7.0 0.00 0.00 0.00 45 1011.8
20260509151557 58 120 2.6 9.6 0.00 0.00 0.00 46 1012.1
20260509150055 57 238 2.6 7.8 0.00 0.00 0.00 45 1012.1
20260509144551 57 131 4.3 9.6 0.00 0.00 0.00 46 1012.2
20260509143050 56 153 4.3 10.4 0.00 0.00 0.00 47 1012.4
20260509141547 56 156 2.6 10.4 0.00 0.00 0.00 50 1012.4
20260509140045 55 198 4.3 9.6 0.00 0.00 0.00 48 1012.5
20260509134545 55 118 3.5 12.2 0.00 0.00 0.00 50 1012.5
20260509133043 54 174 3.5 12.2 0.00 0.00 0.00 51 1012.5
20260509131540 54 191 4.3 10.4 0.00 0.00 0.00 52 1012.7
20260509130041 53 157 3.5 9.6 0.00 0.00 0.00 52 1012.8
20260509124541 52 175 2.6 7.8 0.00 0.00 0.00 53 1013.2